sat.trackr.live / text

‹ back to catalog

STARLINK-31582

NORAD 59545 · 2024-074M

PAYLOAD ACTIVE UNKNOWN

§ Identity

Operator
Country
US
Launch date
2024-04-18
Launch site
AFETR
Launch vehicle
Mass (kg)
RCS (m²)

Purposes: comms

External: N2YO · Heavens-Above · Gunter

§ Orbital elements

Epoch: 2026-09-21T14:33:59.251392Z

Period
94.27 min
Inclination
43.0029°
Eccentricity
0.0000968
Mean motion
15.27577164 rev/d
Perigee alt
482.4 km
Apogee alt
483.7 km
Semi-major
6,861.2 km
B*
3.7330e-5
RAAN
317.4001°
Arg perigee
246.2035°
Mean anomaly
113.8716°
Rev number
13,597

§ Raw data

STARLINK-315821 59545U 24074M   26264.60693578  .00000765  00000+0  37330-4 0  99962 59545  43.0029 317.4001 0000968 246.2035 113.8716 15.27577164135976

JSON: /api/v1/satellites/59545 · /tle

For live sub-satellite position, see the globe view (requires WebGL).

§ Visibility from observer

Set your observer location to see the next 7 days of passes ≥ 10°. The values pass through the URL so the page stays shareable.

No JS? Fill the form by hand. The geolocation button needs JavaScript.